Theta_e
316 316 315 315 315 315 315 315 315 314 314 314 314 314 314 315 316 316 316 316 316 315 315 315 315 314 313 313 312 310 309 308 307 306 305 303 303 303 302 303 302 302
313 313 313 313 313 313 312 313 313 313 312 313 313 313 314 314 314 314 314 314 315 315 315 315 314 314 313 313 312 310 309 308 307 306 304 303 303 302 302 303 302 302
311 311 311 311 312 312 312 312 311 311 311 312 312 312 312 312 312 312 312 313 313 313 313 313 313 313 312 312 312 310 308 308 306 306 304 303 303 302 301 302 301 302
309 310 310 310 310 310 311 310 310 310 310 310 310 311 310 310 310 310 311 309 311 311 312 312 312 312 311 311 310 309 308 308 307 306 304 303 303 303 302 302 301 301
309 308 308 308 309 308 308 308 308 309 309 309 310 310 309 309 308 309 309 309 310 310 310 310 311 310 310 310 310 308 307 306 306 305 304 303 303 302 302 301 300 300
306 307 307 307 307 307 307 307 307 308 308 308 308 308 308 308 307 307 308 308 308 308 308 308 308 308 308 308 308 307 305 305 305 305 303 302 301 301 301 300 299 298
306 305 305 305 305 305 305 306 306 306 306 307 307 306 306 306 305 306 307 307 307 306 306 306 306 306 307 307 306 305 305 305 305 304 302 301 300 298 298 298 298 297
304 304 304 304 304 304 304 304 304 305 305 304 304 304 304 304 304 305 305 305 305 305 305 305 305 305 306 306 305 305 304 304 304 303 301 299 298 297 297 298 297 296
302 302 301 301 302 302 302 302 303 303 303 302 302 303 303 303 303 303 303 303 303 303 303 303 304 304 305 304 304 304 304 303 303 302 300 298 298 298 297 297 296 296
300 299 300 300 301 301 301 301 301 301 300 300 301 301 301 301 302 302 302 301 300 300 301 301 302 302 303 303 303 303 303 303 302 301 301 299 299 299 299 298 297 296
300 300 300 300 300 300 299 299 299 298 298 298 299 299 299 299 299 299 299 299 299 299 300 300 301 301 301 302 302 302 302 301 301 302 301 300 299 299 295 297 298 297
299 299 298 298 298 298 298 298 297 297 297 298 298 298 298 298 298 298 298 298 299 299 299 299 300 300 300 300 300 300 300 300 300 300 300 300 300 300 300 299 298 298
297 297 297 297 297 297 297 296 296 296 296 296 297 296 296 297 297 297 298 298 298 298 298 299 299 299 299 300 300 300 300 299 299 299 299 299 299 299 299 299 299 298
295 295 295 296 296 295 295 295 295 296 296 296 296 296 296 296 296 296 297 297 297 297 298 298 298 298 298 299 299 299 299 298 298 298 298 298 298 298 298 298 298 298
294 294 294 294 294 294 294 294 294 295 295 295 295 295 296 295 295 295 295 296 296 296 296 297 296 297 298 298 298 298 298 298 298 297 297 296 297 297 298 298 298 299
292 292 293 293 293 293 293 293 293 293 294 294 294 294 294 294 294 295 295 295 295 295 296 296 296 297 294 291 292 295 296 297 297 296 296 296 296 296 296 296 297 297
292 292 292 292 292 292 292 292 292 293 293 292 293 293 293 293 293 294 294 295 294 294 295 296 296 296 291 293 293 293 294 295 295 295 295 295 295 294 294 295 295 296
291 291 291 291 291 291 291 291 291 291 291 292 292 291 292 293 293 293 293 294 294 294 294 295 295 292 292 292 292 292 292 294 295 295 295 295 295 295 295 295 295 296
290 290 290 290 289 289 290 290 288 289 289 289 290 291 292 292 292 292 293 293 293 293 293 294 294 292 292 292 292 292 292 292 294 295 295 295 295 295 295 295 295 294
289 289 289 289 288 288 289 288 288 288 289 290 289 290 290 290 291 290 292 292 292 292 292 293 293 291 291 291 291 291 292 292 293 294 294 294 294 294 294 294 294 294
289 288 288 288 288 287 287 287 287 287 287 288 288 289 288 288 289 288 290 289 290 291 291 291 293 291 291 291 291 291 292 292 293 293 293 293 294 294 294 294 294 294
287 288 287 287 286 286 286 286 286 286 286 287 287 288 288 288 288 288 288 287 289 289 289 290 291 291 290 290 290 291 291 292 292 292 292 292 292 293 293 293 293 293
286 286 286 285 285 285 285 285 285 285 286 287 286 287 287 287 287 287 287 287 287 287 288 289 290 290 289 289 290 290 290 290 291 290 290 291 291 292 292 292 293 293
285 285 284 284 284 284 284 285 285 285 286 286 285 285 286 286 286 287 287 287 287 287 288 287 287 288 288 289 289 289 289 289 289 289 289 289 290 291 291 291 291 287
284 284 283 283 283 283 283 283 284 284 285 285 285 285 285 286 286 286 286 286 287 286 285 286 286 287 288 288 288 289 289 288 288 288 288 288 288 289 290 291 291 289
282 282 282 282 282 282 282 283 283 283 283 283 284 285 285 286 286 286 285 286 286 286 286 286 287 287 287 287 288 288 288 288 288 288 287 287 287 288 288 288 290 290
Wind_Speed
5 5 5 5 5 5 4 4 4 4 4 4 5 5 5 6 6 6 6 6 7 9 9 9 9 8 8 8 8 8 8 11 11 10 9 9 9 11 11 12 13 12
5 5 5 4 4 4 3 3 3 3 4 4 4 4 5 5 6 6 7 7 7 7 8 10 10 10 10 9 9 8 9 10 12 7 8 11 9 8 12 13 12 10
5 5 6 6 4 3 3 2 3 3 4 4 4 5 5 6 8 9 9 9 9 9 10 9 10 10 10 10 8 7 8 9 10 8 9 11 8 8 9 10 10 13
5 5 4 4 3 2 2 2 2 3 3 3 4 4 5 5 7 9 10 10 9 9 9 9 9 9 9 9 9 9 9 9 9 9 9 9 9 9 11 9 9 11
4 4 4 3 2 1 1 2 3 3 3 4 5 5 5 6 7 9 9 9 8 8 8 9 9 9 9 9 9 9 7 7 7 7 8 9 9 9 9 8 9 10
3 3 2 2 2 2 2 2 3 3 3 5 5 5 5 5 7 9 9 9 8 7 8 8 8 9 9 9 9 8 6 7 7 8 10 9 8 8 7 8 10 11
3 3 2 2 2 2 1 1 1 2 3 4 4 4 5 5 8 9 9 8 8 7 8 8 8 8 8 8 8 8 7 8 8 7 8 7 7 8 8 9 9 10
3 2 2 1 1 1 0 1 2 2 3 3 4 4 4 6 8 8 8 7 7 7 8 8 8 9 8 8 9 9 8 6 7 7 8 8 7 8 7 7 8 10
2 2 2 2 2 1 1 1 1 2 2 2 3 4 5 6 8 7 7 7 7 7 7 7 8 8 8 8 8 9 10 9 8 7 8 8 8 9 9 8 9 9
3 3 3 2 2 1 0 1 1 1 2 2 3 4 5 6 6 6 6 6 7 7 7 7 8 8 8 8 9 9 10 10 9 8 8 8 9 9 9 8 9 9
4 3 3 3 2 1 1 1 2 2 1 2 3 4 5 5 5 4 5 5 5 6 6 7 7 7 8 8 8 8 9 9 10 10 10 9 9 9 8 9 9 10
3 3 3 2 2 2 2 2 2 1 1 2 3 4 4 4 4 3 4 4 5 6 6 6 7 7 7 8 8 8 8 9 10 9 10 11 10 9 9 9 9 10
3 3 2 2 2 2 2 1 1 1 1 2 2 3 3 3 2 3 3 4 5 5 6 6 6 6 7 8 8 8 9 9 10 10 10 10 10 11 11 10 10 10
3 3 2 2 2 2 1 1 0 0 1 1 2 2 2 2 2 2 3 3 4 5 5 5 6 6 7 7 7 8 8 9 9 10 10 10 11 11 11 10 10 11
3 3 2 2 2 2 2 2 1 1 1 1 1 1 1 1 2 2 3 3 4 4 5 5 5 5 5 5 6 7 8 9 9 10 10 11 11 12 12 11 11 13
3 2 1 1 2 2 2 1 1 0 0 0 0 1 1 1 1 2 3 3 4 4 3 3 4 4 4 7 7 7 8 8 8 9 10 10 11 12 12 12 11 11
3 2 2 3 3 3 2 2 2 1 1 1 1 1 0 1 1 1 2 3 3 4 4 3 3 4 6 8 9 10 8 8 9 10 9 10 11 11 12 12 11 11
3 3 3 3 3 3 2 2 2 2 2 2 2 2 2 1 2 2 2 3 3 4 4 4 4 5 8 9 10 10 8 8 8 8 9 10 10 11 11 11 12 11
2 3 3 2 2 2 2 2 2 2 2 2 3 3 3 3 3 3 3 4 4 5 5 5 5 7 10 11 12 12 11 8 7 8 8 9 9 10 11 10 11 11
2 1 2 3 3 3 4 3 3 3 3 3 2 3 3 3 3 4 3 4 4 5 6 6 6 7 10 12 13 13 13 11 8 9 9 10 10 10 10 11 12 12
1 2 3 3 4 3 3 3 3 2 2 2 2 2 2 2 2 3 3 4 5 5 5 6 6 8 10 10 11 12 13 11 9 8 9 9 10 10 11 11 11 12
3 3 3 3 4 3 3 2 2 2 2 2 2 2 2 2 2 2 3 3 4 5 6 7 7 8 10 10 12 13 14 9 8 8 9 9 10 10 10 10 10 12
3 3 2 2 2 2 2 1 2 2 2 1 2 2 2 2 2 3 3 3 4 4 5 7 7 8 9 10 11 13 11 6 8 7 8 10 10 10 9 10 10 11
2 2 1 2 2 2 2 2 2 1 1 2 2 2 2 2 3 3 3 3 3 4 5 5 5 9 10 10 11 12 11 7 7 8 8 9 10 10 9 11 12 13
2 2 2 2 3 3 3 3 2 2 2 2 2 2 3 3 3 3 3 3 3 3 6 6 5 7 9 9 10 11 10 6 7 8 9 9 9 11 12 10 11 10
2 2 2 2 3 3 3 3 3 2 3 3 3 2 3 3 2 3 4 4 3 2 2 2 4 4 5 10 10 10 12 8 8 8 10 12 11 10 11 10 10 11
Wind_Direction
210 215 226 228 233 229 230 232 237 241 247 246 248 256 259 268 271 260 252 245 245 250 251 249 245 235 233 226 218 226 239 242 240 237 227 223 224 225 232 233 230 232
204 214 223 228 227 218 224 234 250 255 261 257 261 265 261 264 269 269 262 257 250 246 250 253 252 249 244 235 224 223 238 243 245 222 214 219 227 218 231 232 231 228
201 209 217 220 222 219 225 229 256 263 261 267 273 270 271 275 273 268 262 257 258 257 255 252 252 250 251 252 245 235 238 238 239 239 238 238 229 223 225 225 227 230
204 212 215 218 225 233 233 235 242 251 257 263 261 271 275 272 270 268 263 259 257 257 256 253 251 251 253 255 251 249 247 245 241 236 235 233 234 235 237 231 231 236
198 205 214 212 211 225 244 250 253 261 268 275 279 275 269 272 268 267 263 261 258 258 257 256 254 250 248 251 248 249 242 240 237 235 238 240 236 234 238 238 239 240
199 212 206 202 203 210 220 230 253 264 273 274 273 277 275 278 270 264 263 261 259 256 257 256 255 252 251 252 254 249 241 241 239 233 235 240 242 234 238 232 236 240
187 190 189 184 187 198 226 249 283 285 281 283 287 278 288 282 267 264 264 264 262 259 255 256 253 254 254 256 255 251 240 242 245 232 235 242 239 242 237 236 237 240
165 159 148 136 152 108 294 328 299 285 286 289 286 295 293 274 267 266 265 266 266 264 264 263 264 263 262 259 259 258 250 241 243 240 242 243 237 245 241 238 238 241
128 116 97 88 69 59 19 291 292 280 289 293 304 298 278 263 262 260 262 266 265 263 266 267 266 267 267 264 263 262 263 257 246 241 244 244 242 242 240 237 240 239
112 101 98 97 109 107 166 280 287 306 346 332 297 276 267 263 261 264 262 262 263 266 265 266 268 268 268 266 265 266 267 267 260 248 242 244 248 247 246 239 238 243
96 101 94 100 92 98 54 24 14 358 358 298 276 262 259 265 266 264 268 263 264 268 271 271 272 275 277 275 272 270 272 274 272 268 261 252 245 248 247 246 244 244
82 77 74 68 58 49 37 24 16 329 288 265 253 258 260 262 265 275 266 268 266 267 268 269 270 272 272 271 271 272 269 267 268 267 267 266 260 254 250 245 248 250
72 65 52 53 50 42 35 23 358 291 259 251 243 248 258 262 275 280 281 285 284 284 280 282 283 278 276 276 277 277 276 273 271 269 268 268 265 264 262 257 254 255
72 62 55 57 58 61 65 57 27 242 244 250 239 245 247 269 279 288 296 289 291 288 287 290 288 284 282 283 284 285 286 283 280 279 277 273 270 267 264 261 259 258
74 57 43 63 62 66 57 40 24 348 330 291 292 290 301 290 291 291 288 288 286 285 292 293 289 286 286 291 299 294 290 289 286 284 282 281 279 278 275 268 265 266
83 76 94 117 125 120 115 118 157 127 221 349 4 0 349 325 300 281 272 277 284 286 285 285 278 275 272 270 265 277 293 292 290 286 286 285 284 284 281 277 272 269
110 137 177 168 150 135 134 147 142 169 145 116 113 54 1 319 276 282 307 301 300 303 303 290 281 281 285 283 279 268 271 287 288 288 286 285 283 281 283 282 278 276
128 171 182 162 141 127 131 122 120 120 90 75 50 33 7 341 3 347 327 328 316 314 305 301 297 286 293 296 288 283 271 276 284 281 280 281 280 280 281 281 284 284
161 187 174 136 100 89 80 68 62 53 43 27 25 3 345 5 2 347 348 336 323 320 314 309 306 308 312 307 305 303 300 290 285 282 282 280 280 280 281 282 285 285
163 180 118 75 57 46 45 43 37 37 18 13 358 354 356 343 345 339 335 331 324 311 305 303 295 300 300 297 297 297 296 297 287 286 282 280 278 277 277 281 281 282
63 46 49 46 41 39 36 36 29 16 7 2 355 346 343 339 336 333 319 306 298 294 293 288 283 284 288 282 283 288 290 293 287 283 281 278 276 273 273 274 277 277
33 31 35 38 35 35 36 27 21 5 347 345 337 330 325 312 306 291 288 283 282 282 281 282 284 285 289 285 284 291 294 294 287 284 284 280 276 273 270 271 272 275
22 24 28 30 26 23 25 17 0 342 335 340 314 307 303 300 292 285 284 286 282 276 274 282 288 294 297 291 286 291 294 293 290 285 280 278 277 277 276 275 276 271
10 8 18 17 19 12 352 347 341 321 312 325 309 306 303 295 290 287 272 266 266 268 276 286 290 299 300 292 291 291 293 296 295 299 292 285 283 277 278 282 277 262
2 1 10 5 10 356 344 323 312 322 320 316 305 293 286 287 282 281 285 278 252 252 264 267 277 292 296 292 293 299 304 308 305 305 299 292 295 295 296 288 283 272
356 3 5 9 359 340 332 312 311 319 332 325 311 294 296 290 286 288 280 290 281 271 266 275 299 305 317 311 306 310 310 309 311 308 306 305 300 299 302 297 294 291